,,,PA_Meas_PMT16A,,PR_Meas_QMR101_102,,RH_Meas_QMH101,,SR_Meas_QMS101,,TA_Meas_QMH101,,GenWind,,GenWind,
date,time,status,PA,status,PR,status,RH,status,SR,status,TA,status,DirAvg,status,SpdAvg,
2011-08-23, 00:00:04,VALID,1004.48,VALID,0,INVALID,163.662,VALID,0,VALID,25.3195,VALID,42,VALID,0,
2011-08-23, 00:01:04,VALID,1004.48,VALID,0,INVALID,163.647,VALID,0,VALID,25.3,VALID,42,VALID,0,
2011-08-23, 00:02:04,VALID,1004.48,VALID,0,INVALID,163.701,VALID,0,VALID,25.2806,VALID,42,VALID,0,
2011-08-23, 00:03:04,VALID,1004.52,VALID,0,INVALID,163.617,VALID,0,VALID,25.2202,VALID,42,VALID,0,
2011-08-23, 00:04:04,VALID,1004.51,VALID,0,INVALID,163.655,VALID,0,VALID,25.2221,VALID,42,VALID,0,
2011-08-23, 00:05:04,VALID,1004.49,VALID,0,INVALID,163.662,VALID,0,VALID,25.1618,VALID,42,VALID,0,
2011-08-23, 00:06:04,VALID,1004.48,VALID,0,INVALID,163.685,VALID,0,VALID,25.1229,VALID,42,VALID,0,
2011-08-23, 00:07:04,VALID,1004.47,VALID,0,INVALID,163.647,VALID,0,VALID,25.0839,VALID,42,VALID,0,
2011-08-23, 00:08:04,VALID,1004.48,VALID,0,INVALID,163.662,VALID,0,VALID,25.045,VALID,42,VALID,0,
2011-08-23, 00:09:04,VALID,1004.48,VALID,0,INVALID,163.655,VALID,0,VALID,25.0041,VALID,42,VALID,0,
2011-08-23, 00:10:04,VALID,1004.48,VALID,0,INVALID,163.632,VALID,0,VALID,25.006,VALID,42,VALID,0,
2011-08-23, 00:11:04,VALID,1004.48,VALID,0,INVALID,163.685,VALID,0,VALID,24.9866,VALID,42,VALID,0,
2011-08-23, 00:12:04,VALID,1004.51,VALID,0,INVALID,163.647,VALID,0,VALID,24.9885,VALID,42,VALID,0,
2011-08-23, 00:13:04,VALID,1004.5,VALID,0,INVALID,163.67,VALID,0,VALID,24.9671,VALID,42,VALID,0,
2011-08-23, 00:14:04,VALID,1004.53,VALID,0,INVALID,163.693,VALID,0,VALID,24.9495,VALID,42,VALID,0,
2011-08-23, 00:15:04,VALID,1004.49,VALID,0,INVALID,163.693,VALID,0,VALID,24.8892,VALID,42,VALID,0,
2011-08-23, 00:16:04,VALID,1004.5,VALID,0,INVALID,163.685,VALID,0,VALID,24.8697,VALID,37,VALID,0,
2011-08-23, 00:17:04,VALID,1004.5,VALID,0,INVALID,163.701,VALID,0,VALID,24.8503,VALID,232,VALID,0,
2011-08-23, 00:18:04,VALID,1004.51,VALID,0,INVALID,163.678,VALID,0,VALID,24.8308,VALID,253,VALID,0,
2011-08-23, 00:19:04,VALID,1004.52,VALID,0,INVALID,163.678,VALID,0,VALID,24.8289,VALID,291,VALID,0,
2011-08-23, 00:20:04,VALID,1004.55,VALID,0,INVALID,163.685,VALID,0,VALID,24.8697,VALID,346,VALID,0,
2011-08-23, 00:21:04,VALID,1004.58,VALID,0,INVALID,163.685,VALID,0.100563,VALID,24.8697,VALID,2,VALID,0,
2011-08-23, 00:22:04,VALID,1004.63,VALID,0,INVALID,163.693,VALID,0,VALID,24.8113,VALID,11,VALID,0,
2011-08-23, 00:23:04,VALID,1004.66,VALID,0,INVALID,163.708,VALID,0,VALID,24.7724,VALID,11,VALID,0,
2011-08-23, 00:24:04,VALID,1004.65,VALID,0,INVALID,163.701,VALID,0,VALID,24.714,VALID,15,VALID,0,
2011-08-23, 00:25:04,VALID,1004.69,VALID,0,INVALID,163.693,VALID,0,VALID,24.675,VALID,15,VALID,0,
2011-08-23, 00:26:04,VALID,1004.67,VALID,0,INVALID,163.685,VALID,0,VALID,24.6361,VALID,15,VALID,0,
2011-08-23, 00:27:04,VALID,1004.66,VALID,0,INVALID,163.701,VALID,0,VALID,24.6166,VALID,15,VALID,0,
2011-08-23, 00:28:04,VALID,1004.69,VALID,0,INVALID,163.701,VALID,0,VALID,24.5972,VALID,15,VALID,0,
2011-08-23, 00:29:04,VALID,1004.68,VALID,0,INVALID,163.701,VALID,0,VALID,24.5972,VALID,15,VALID,0,
2011-08-23, 00:30:04,VALID,1004.66,VALID,0,INVALID,163.708,VALID,0,VALID,24.5582,VALID,15,VALID,0,
2011-08-23, 00:31:04,VALID,1004.66,VALID,0,INVALID,163.716,VALID,0,VALID,24.5388,VALID,15,VALID,0,
2011-08-23, 00:32:04,VALID,1004.63,VALID,0,INVALID,163.716,VALID,0,VALID,24.5193,VALID,15,VALID,0,
2011-08-23, 00:33:04,VALID,1004.61,VALID,0,INVALID,163.769,VALID,0,VALID,24.5193,VALID,15,VALID,0,
2011-08-23, 00:34:04,VALID,1004.55,VALID,0,INVALID,163.739,VALID,0,VALID,24.4804,VALID,15,VALID,0,
2011-08-23, 00:35:04,VALID,1004.5,VALID,0,INVALID,163.701,VALID,0,VALID,24.4609,VALID,15,VALID,0,
2011-08-23, 00:36:04,VALID,1004.46,VALID,0,INVALID,163.716,VALID,0,VALID,24.4609,VALID,15,VALID,0,
2011-08-23, 00:37:04,VALID,1004.4,VALID,0,INVALID,163.708,VALID,0,VALID,24.5017,VALID,15,VALID,0,
2011-08-23, 00:38:04,VALID,1004.36,VALID,0,INVALID,163.731,VALID,0,VALID,24.4804,VALID,15,VALID,0,
2011-08-23, 00:39:04,VALID,1004.3,VALID,0,INVALID,163.716,VALID,0,VALID,24.459,VALID,15,VALID,0,
2011-08-23, 00:40:04,VALID,1004.3,VALID,0,INVALID,163.723,VALID,0,VALID,24.4785,VALID,15,VALID,0,
2011-08-23, 00:41:04,VALID,1004.34,VALID,0,INVALID,163.708,VALID,0,VALID,24.4804,VALID,15,VALID,0,
2011-08-23, 00:42:04,VALID,1004.35,VALID,0,INVALID,163.716,VALID,0.100563,VALID,24.4804,VALID,15,VALID,0,
2011-08-23, 00:43:04,VALID,1004.35,VALID,0,INVALID,163.701,VALID,0,VALID,24.4785,VALID,15,VALID,0,
2011-08-23, 00:44:04,VALID,1004.36,VALID,0,INVALID,163.723,VALID,0,VALID,24.5017,VALID,15,VALID,0,
2011-08-23, 00:45:04,VALID,1004.34,VALID,0,INVALID,163.731,VALID,0,VALID,24.4396,VALID,15,VALID,0,
2011-08-23, 00:46:04,VALID,1004.27,VALID,0,INVALID,163.701,VALID,0,VALID,24.4396,VALID,15,VALID,0,
2011-08-23, 00:47:04,VALID,1004.24,VALID,0,INVALID,163.723,VALID,0,VALID,24.4628,VALID,15,VALID,0,
2011-08-23, 00:48:04,VALID,1004.2,VALID,0,INVALID,163.685,VALID,0,VALID,24.422,VALID,15,VALID,0,
2011-08-23, 00:49:04,VALID,1004.15,VALID,0,INVALID,163.716,VALID,0,VALID,24.4433,VALID,15,VALID,0,
2011-08-23, 00:50:04,VALID,1004.13,VALID,0,INVALID,163.723,VALID,0.100563,VALID,24.4006,VALID,15,VALID,0,
2011-08-23, 00:51:04,VALID,1004.11,VALID,0,INVALID,163.723,VALID,0,VALID,24.4433,VALID,15,VALID,0,
2011-08-23, 00:52:04,VALID,1004.1,VALID,0,INVALID,163.685,VALID,0.100563,VALID,24.4006,VALID,15,VALID,0,
2011-08-23, 00:53:04,VALID,1004.16,VALID,0,INVALID,163.716,VALID,0.100563,VALID,24.4025,VALID,15,VALID,0,
2011-08-23, 00:54:04,VALID,1004.18,VALID,0,INVALID,163.716,VALID,0.100563,VALID,24.3849,VALID,15,VALID,0,
2011-08-23, 00:55:04,VALID,1004.2,VALID,0,INVALID,163.716,VALID,0.100563,VALID,24.3033,VALID,15,VALID,0,
2011-08-23, 00:56:04,VALID,1004.2,VALID,0,INVALID,163.701,VALID,0,VALID,24.2857,VALID,15,VALID,0,
2011-08-23, 00:57:04,VALID,1004.22,VALID,0,INVALID,163.716,VALID,0,VALID,24.2857,VALID,15,VALID,0,
2011-08-23, 00:58:04,VALID,1004.24,VALID,0,INVALID,163.723,VALID,0,VALID,24.2662,VALID,15,VALID,0,
2011-08-23, 00:59:04,VALID,1004.22,VALID,0,INVALID,163.731,VALID,0,VALID,24.2468,VALID,15,VALID,0,
2011-08-23, 01:00:04,VALID,1004.19,VALID,0,INVALID,163.784,VALID,0,VALID,24.2681,VALID,15,VALID,0,
2011-08-23, 01:01:04,VALID,1004.17,VALID,0,INVALID,163.739,VALID,0,VALID,24.2468,VALID,15,VALID,0,
2011-08-23, 01:02:04,VALID,1004.14,VALID,0,INVALID,163.723,VALID,0,VALID,24.2681,VALID,15,VALID,0,
2011-08-23, 01:03:04,VALID,1004.07,VALID,0,INVALID,163.769,VALID,0,VALID,24.2875,VALID,15,VALID,0,
2011-08-23, 01:04:04,VALID,1004.08,VALID,0,INVALID,163.731,VALID,0,VALID,24.2662,VALID,12,VALID,0,
2011-08-23, 01:05:04,VALID,1004.06,VALID,0,INVALID,163.739,VALID,0,VALID,24.2662,VALID,10,VALID,0,
2011-08-23, 01:06:04,VALID,1004.03,VALID,0,INVALID,163.723,VALID,0,VALID,24.2681,VALID,13,VALID,0,
2011-08-23, 01:07:04,VALID,1004.04,VALID,0,INVALID,163.708,VALID,0,VALID,24.2486,VALID,15,VALID,0,
2011-08-23, 01:08:04,VALID,1003.99,VALID,0,INVALID,163.716,VALID,0,VALID,24.2681,VALID,7,VALID,0,
2011-08-23, 01:09:04,VALID,1004,VALID,0,INVALID,163.731,VALID,0,VALID,24.2486,VALID,4,VALID,0,
2011-08-23, 01:10:04,VALID,1003.96,VALID,0,INVALID,163.716,VALID,0,VALID,24.2273,VALID,4,VALID,0,
2011-08-23, 01:11:04,VALID,1003.97,VALID,0,INVALID,163.784,VALID,0,VALID,24.2291,VALID,4,VALID,0,
2011-08-23, 01:12:04,VALID,1003.97,VALID,0,INVALID,163.708,VALID,0,VALID,24.2291,VALID,360,VALID,0,
2011-08-23, 01:13:04,VALID,1003.99,VALID,0,INVALID,163.701,VALID,0,VALID,24.2273,VALID,360,VALID,0,
2011-08-23, 01:14:04,VALID,1004.02,VALID,0,INVALID,163.723,VALID,0,VALID,24.2273,VALID,360,VALID,0,
2011-08-23, 01:15:04,VALID,1004.02,VALID,0,INVALID,163.723,VALID,0,VALID,24.2681,VALID,356,VALID,0,
2011-08-23, 01:16:04,VALID,1003.99,VALID,0,INVALID,163.739,VALID,0.100563,VALID,24.2449,VALID,345,VALID,0,
2011-08-23, 01:17:04,VALID,1003.99,VALID,0,INVALID,163.708,VALID,0.100563,VALID,24.2644,VALID,355,VALID,0,
2011-08-23, 01:18:04,VALID,1003.99,VALID,0,INVALID,163.723,VALID,0.100563,VALID,24.2839,VALID,354,VALID,0,
2011-08-23, 01:19:04,VALID,1004.03,VALID,0,INVALID,163.701,VALID,0.100563,VALID,24.3052,VALID,354,VALID,0,
2011-08-23, 01:20:04,VALID,1004.03,VALID,0,INVALID,163.731,VALID,0.100563,VALID,24.3246,VALID,5,VALID,0,
2011-08-23, 01:21:04,VALID,1004.09,VALID,0,INVALID,163.723,VALID,0.100563,VALID,24.3052,VALID,13,VALID,0,
2011-08-23, 01:22:04,VALID,1004.1,VALID,0,INVALID,163.708,VALID,0.100563,VALID,24.3033,VALID,13,VALID,0,
2011-08-23, 01:23:04,VALID,1004.08,VALID,0,INVALID,163.723,VALID,0.100563,VALID,24.3246,VALID,13,VALID,0,
2011-08-23, 01:24:04,VALID,1004.09,VALID,0,INVALID,163.731,VALID,0.100563,VALID,24.3246,VALID,6,VALID,0,
2011-08-23, 01:25:04,VALID,1004.09,VALID,0,INVALID,163.723,VALID,0.100563,VALID,24.3033,VALID,351,VALID,0,
2011-08-23, 01:26:04,VALID,1004.12,VALID,0,INVALID,163.731,VALID,0.100563,VALID,24.3441,VALID,350,VALID,0,
2011-08-23, 01:27:04,VALID,1004.11,VALID,0,INVALID,163.731,VALID,0,VALID,24.3654,VALID,350,VALID,0,
2011-08-23, 01:28:04,VALID,1004.09,VALID,0,INVALID,163.708,VALID,0.100563,VALID,24.4025,VALID,350,VALID,0,
2011-08-23, 01:29:04,VALID,1004.06,VALID,0,INVALID,163.723,VALID,0,VALID,24.422,VALID,350,VALID,0,
2011-08-23, 01:30:04,VALID,1004.02,VALID,0,INVALID,163.746,VALID,0.100563,VALID,24.4414,VALID,350,VALID,0,
2011-08-23, 01:31:04,VALID,1003.95,VALID,0,INVALID,163.739,VALID,0.100563,VALID,24.4414,VALID,350,VALID,0,
2011-08-23, 01:32:04,VALID,1003.92,VALID,0,INVALID,163.723,VALID,0,VALID,24.4414,VALID,350,VALID,0,
2011-08-23, 01:33:04,VALID,1003.88,VALID,0,INVALID,163.701,VALID,0,VALID,24.4804,VALID,350,VALID,0,
2011-08-23, 01:34:04,VALID,1003.84,VALID,0,INVALID,163.662,VALID,0.100563,VALID,24.5174,VALID,350,VALID,0,
2011-08-23, 01:35:04,VALID,1003.82,VALID,0,INVALID,163.685,VALID,0.100563,VALID,24.5388,VALID,350,VALID,0,
2011-08-23, 01:36:04,VALID,1003.8,VALID,0,INVALID,163.701,VALID,0.100563,VALID,24.5564,VALID,7,VALID,0,
2011-08-23, 01:37:04,VALID,1003.79,VALID,0,INVALID,163.716,VALID,0.100563,VALID,24.5582,VALID,22,VALID,0,
2011-08-23, 01:38:04,VALID,1003.8,VALID,0,INVALID,163.708,VALID,0.100563,VALID,24.5174,VALID,22,VALID,0,
2011-08-23, 01:39:04,VALID,1003.76,VALID,0,INVALID,163.731,VALID,0.100563,VALID,24.5193,VALID,22,VALID,0,
2011-08-23, 01:40:04,VALID,1003.74,VALID,0,INVALID,163.716,VALID,0.100563,VALID,24.5193,VALID,22,VALID,0,
2011-08-23, 01:41:04,VALID,1003.76,VALID,0,INVALID,163.731,VALID,0.100563,VALID,24.5174,VALID,22,VALID,0,
2011-08-23, 01:42:04,VALID,1003.76,VALID,0,INVALID,163.708,VALID,0,VALID,24.5388,VALID,22,VALID,0,
2011-08-23, 01:43:04,VALID,1003.79,VALID,0,INVALID,163.708,VALID,0.100563,VALID,24.498,VALID,22,VALID,0,
2011-08-23, 01:44:04,VALID,1003.82,VALID,0,INVALID,163.723,VALID,0.100563,VALID,24.5388,VALID,22,VALID,0,
2011-08-23, 01:45:04,VALID,1003.84,VALID,0,INVALID,163.716,VALID,0.100563,VALID,24.5388,VALID,22,VALID,0,
2011-08-23, 01:46:04,VALID,1003.86,VALID,0,INVALID,163.693,VALID,0.100563,VALID,24.5388,VALID,22,VALID,0,
2011-08-23, 01:47:04,VALID,1003.86,VALID,0,INVALID,163.716,VALID,0.100563,VALID,24.5174,VALID,22,VALID,0,
2011-08-23, 01:48:04,VALID,1003.81,VALID,0,INVALID,163.685,VALID,0.100563,VALID,24.5582,VALID,22,VALID,0,
2011-08-23, 01:49:04,VALID,1003.78,VALID,0,INVALID,163.739,VALID,0.100563,VALID,24.5564,VALID,22,VALID,0,
2011-08-23, 01:50:04,VALID,1003.71,VALID,0,INVALID,163.708,VALID,0.100563,VALID,24.5777,VALID,22,VALID,0,
2011-08-23, 01:51:04,VALID,1003.66,VALID,0,INVALID,163.723,VALID,0.100563,VALID,24.5582,VALID,22,VALID,0,
2011-08-23, 01:52:04,VALID,1003.62,VALID,0,INVALID,163.723,VALID,0,VALID,24.5564,VALID,22,VALID,0,
2011-08-23, 01:53:04,VALID,1003.57,VALID,0,INVALID,163.701,VALID,0.100563,VALID,24.5972,VALID,22,VALID,0,
2011-08-23, 01:54:04,VALID,1003.56,VALID,0,INVALID,163.708,VALID,0.100563,VALID,24.6166,VALID,22,VALID,0,
2011-08-23, 01:55:04,VALID,1003.55,VALID,0,INVALID,163.693,VALID,0,VALID,24.6769,VALID,22,VALID,0,
2011-08-23, 01:56:04,VALID,1003.59,VALID,0,INVALID,163.701,VALID,0.100563,VALID,24.675,VALID,22,VALID,0,
2011-08-23, 01:57:04,VALID,1003.61,VALID,0,INVALID,163.693,VALID,0,VALID,24.675,VALID,22,VALID,0,
2011-08-23, 01:58:04,VALID,1003.63,VALID,0,INVALID,163.685,VALID,0.100563,VALID,24.6556,VALID,22,VALID,0,
2011-08-23, 01:59:04,VALID,1003.66,VALID,0,INVALID,163.701,VALID,0.100563,VALID,24.6361,VALID,27,VALID,0,
2011-08-23, 02:00:04,VALID,1003.68,VALID,0,INVALID,163.685,VALID,0,VALID,24.5972,VALID,29,VALID,0,
2011-08-23, 02:01:04,VALID,1003.7,VALID,0,INVALID,163.708,VALID,0,VALID,24.5777,VALID,29,VALID,0,
2011-08-23, 02:02:04,VALID,1003.67,VALID,0,INVALID,163.693,VALID,0,VALID,24.5582,VALID,12,VALID,0,
2011-08-23, 02:03:04,VALID,1003.71,VALID,0,INVALID,163.708,VALID,0,VALID,24.5582,VALID,6,VALID,0,
2011-08-23, 02:04:04,VALID,1003.68,VALID,0,INVALID,163.708,VALID,0,VALID,24.5601,VALID,6,VALID,0,
2011-08-23, 02:05:04,VALID,1003.69,VALID,0,INVALID,163.723,VALID,0,VALID,24.5174,VALID,6,VALID,0,
2011-08-23, 02:06:04,VALID,1003.69,VALID,0,INVALID,163.716,VALID,0,VALID,24.5193,VALID,359,VALID,0,
2011-08-23, 02:07:04,VALID,1003.64,VALID,0,INVALID,163.685,VALID,0,VALID,24.4785,VALID,357,VALID,0,
2011-08-23, 02:08:04,VALID,1003.64,VALID,0,INVALID,163.708,VALID,0,VALID,24.4998,VALID,357,VALID,0,
2011-08-23, 02:09:04,VALID,1003.63,VALID,0,INVALID,163.716,VALID,0,VALID,24.4998,VALID,357,VALID,0,
2011-08-23, 02:10:04,VALID,1003.65,VALID,0,INVALID,163.731,VALID,0,VALID,24.5193,VALID,357,VALID,0,
2011-08-23, 02:11:04,VALID,1003.64,VALID,0,INVALID,163.716,VALID,0,VALID,24.5388,VALID,357,VALID,0,
2011-08-23, 02:12:04,VALID,1003.65,VALID,0,INVALID,163.723,VALID,0,VALID,24.5388,VALID,357,VALID,0,
2011-08-23, 02:13:04,VALID,1003.67,VALID,0,INVALID,163.693,VALID,0,VALID,24.5193,VALID,357,VALID,0,
2011-08-23, 02:14:04,VALID,1003.68,VALID,0,INVALID,163.701,VALID,0,VALID,24.5388,VALID,1,VALID,0,
2011-08-23, 02:15:04,VALID,1003.69,VALID,0,INVALID,163.693,VALID,0,VALID,24.5369,VALID,1,VALID,0,
2011-08-23, 02:16:04,VALID,1003.65,VALID,0,INVALID,163.716,VALID,0,VALID,24.5601,VALID,1,VALID,0,
2011-08-23, 02:17:04,VALID,1003.67,VALID,0,INVALID,163.693,VALID,0,VALID,24.5388,VALID,1,VALID,0,
2011-08-23, 02:18:04,VALID,1003.67,VALID,0,INVALID,163.701,VALID,0,VALID,24.5582,VALID,1,VALID,0,
2011-08-23, 02:19:04,VALID,1003.69,VALID,0,INVALID,163.693,VALID,0,VALID,24.5582,VALID,1,VALID,0,
2011-08-23, 02:20:04,VALID,1003.69,VALID,0,INVALID,163.716,VALID,0,VALID,24.5582,VALID,93,VALID,0,
2011-08-23, 02:21:04,VALID,1003.73,VALID,0,INVALID,163.716,VALID,0.100563,VALID,24.5582,VALID,93,VALID,0,
2011-08-23, 02:22:04,VALID,1003.77,VALID,0,INVALID,163.685,VALID,0,VALID,24.5582,VALID,93,VALID,0,
2011-08-23, 02:23:04,VALID,1003.87,VALID,0,INVALID,163.685,VALID,0,VALID,24.5796,VALID,95,VALID,0,
2011-08-23, 02:24:04,VALID,1003.84,VALID,0,INVALID,163.708,VALID,0,VALID,24.5193,VALID,107,VALID,0,
2011-08-23, 02:25:04,VALID,1003.86,VALID,0,INVALID,163.731,VALID,0,VALID,24.5193,VALID,53,VALID,0,
2011-08-23, 02:26:04,VALID,1003.86,VALID,0,INVALID,163.716,VALID,0,VALID,24.5388,VALID,76,VALID,0,
2011-08-23, 02:27:04,VALID,1003.88,VALID,0,INVALID,163.716,VALID,0,VALID,24.5582,VALID,74,VALID,0,
2011-08-23, 02:28:04,VALID,1003.89,VALID,0,INVALID,163.701,VALID,0,VALID,24.599,VALID,112,VALID,0,
2011-08-23, 02:29:04,VALID,1003.9,VALID,0,INVALID,163.708,VALID,0,VALID,24.5972,VALID,99,VALID,0,
2011-08-23, 02:30:04,VALID,1003.91,VALID,0,INVALID,163.708,VALID,0,VALID,24.6166,VALID,116,VALID,0,
2011-08-23, 02:31:04,VALID,1003.89,VALID,0,INVALID,163.693,VALID,0,VALID,24.6361,VALID,89,VALID,0,
2011-08-23, 02:32:04,VALID,1003.89,VALID,0,INVALID,163.685,VALID,0,VALID,24.6166,VALID,101,VALID,0,
2011-08-23, 02:33:04,VALID,1003.88,VALID,0,INVALID,163.685,VALID,0,VALID,24.6166,VALID,54,VALID,0,
2011-08-23, 02:34:04,VALID,1003.85,VALID,0,INVALID,163.685,VALID,0,VALID,24.5972,VALID,20,VALID,0,
2011-08-23, 02:35:04,VALID,1003.82,VALID,0,INVALID,163.693,VALID,0,VALID,24.5777,VALID,83,VALID,0,
2011-08-23, 02:36:04,VALID,1003.82,VALID,0,INVALID,163.701,VALID,0,VALID,24.5582,VALID,117,VALID,0,
2011-08-23, 02:37:04,VALID,1003.82,VALID,0,INVALID,163.701,VALID,0,VALID,24.5388,VALID,98,VALID,0,
2011-08-23, 02:38:04,VALID,1003.8,VALID,0,INVALID,163.701,VALID,0,VALID,24.5193,VALID,101,VALID,0,
2011-08-23, 02:39:04,VALID,1003.77,VALID,0,INVALID,163.701,VALID,0,VALID,24.4998,VALID,102,VALID,0,
2011-08-23, 02:40:04,VALID,1003.78,VALID,0,INVALID,163.708,VALID,0,VALID,24.4609,VALID,62,VALID,0,
2011-08-23, 02:41:04,VALID,1003.74,VALID,0,INVALID,163.701,VALID,0,VALID,24.422,VALID,101,VALID,0,
2011-08-23, 02:42:04,VALID,1003.74,VALID,0.5,INVALID,163.716,VALID,0,VALID,24.4025,VALID,104,VALID,0,
2011-08-23, 02:43:04,VALID,1003.74,VALID,0,INVALID,163.716,VALID,0,VALID,24.4025,VALID,96,VALID,0,
2011-08-23, 02:44:04,VALID,1003.7,VALID,0,INVALID,163.708,VALID,0,VALID,24.3636,VALID,95,VALID,0,
2011-08-23, 02:45:04,VALID,1003.65,VALID,0,INVALID,163.731,VALID,0,VALID,24.3441,VALID,91,VALID,0,
2011-08-23, 02:46:04,VALID,1003.63,VALID,0,INVALID,163.701,VALID,0.100563,VALID,24.3459,VALID,76,VALID,0,
2011-08-23, 02:47:04,VALID,1003.57,VALID,0,INVALID,163.746,VALID,0,VALID,24.307,VALID,81,VALID,0,
2011-08-23, 02:48:04,VALID,1003.52,VALID,0,INVALID,163.716,VALID,0,VALID,24.2662,VALID,98,VALID,0,
2011-08-23, 02:49:04,VALID,1003.5,VALID,0,INVALID,163.731,VALID,0,VALID,24.2681,VALID,93,VALID,0,
2011-08-23, 02:50:04,VALID,1003.49,VALID,0,INVALID,163.792,VALID,0,VALID,24.2078,VALID,93,VALID,0,
2011-08-23, 02:51:04,VALID,1003.49,VALID,0.5,INVALID,163.762,VALID,0,VALID,24.1884,VALID,75,VALID,0,
2011-08-23, 02:52:04,VALID,1003.53,VALID,0,INVALID,163.746,VALID,0,VALID,24.1689,VALID,108,VALID,0,
2011-08-23, 02:53:04,VALID,1003.51,VALID,0,INVALID,163.746,VALID,0.100563,VALID,24.1513,VALID,93,VALID,0,
2011-08-23, 02:54:04,VALID,1003.51,VALID,0,INVALID,163.754,VALID,0,VALID,24.13,VALID,89,VALID,0,
2011-08-23, 02:55:04,VALID,1003.51,VALID,0,INVALID,163.731,VALID,0,VALID,24.13,VALID,80,VALID,0,
2011-08-23, 02:56:04,VALID,1003.53,VALID,0,INVALID,163.762,VALID,0.100563,VALID,24.13,VALID,63,VALID,0,
2011-08-23, 02:57:04,VALID,1003.53,VALID,0,INVALID,163.716,VALID,0,VALID,24.1105,VALID,112,VALID,0,
2011-08-23, 02:58:04,VALID,1003.55,VALID,0,INVALID,163.746,VALID,0,VALID,24.091,VALID,93,VALID,0,
2011-08-23, 02:59:04,VALID,1003.56,VALID,0,INVALID,163.754,VALID,0,VALID,24.0716,VALID,104,VALID,0,
2011-08-23, 03:00:04,VALID,1003.57,VALID,0,INVALID,163.762,VALID,0,VALID,24.0716,VALID,101,VALID,0,
2011-08-23, 03:01:04,VALID,1003.58,VALID,0,INVALID,163.731,VALID,0,VALID,24.091,VALID,108,VALID,0,
2011-08-23, 03:02:04,VALID,1003.59,VALID,0,INVALID,163.731,VALID,0,VALID,24.091,VALID,126,VALID,0,
2011-08-23, 03:03:04,VALID,1003.62,VALID,0,INVALID,163.693,VALID,0,VALID,24.1105,VALID,126,VALID,0,
2011-08-23, 03:04:04,VALID,1003.62,VALID,0,INVALID,163.754,VALID,0,VALID,24.1707,VALID,126,VALID,0,
2011-08-23, 03:05:04,VALID,1003.64,VALID,0,INVALID,163.777,VALID,0,VALID,24.13,VALID,126,VALID,0,
2011-08-23, 03:06:04,VALID,1003.67,VALID,0,INVALID,163.739,VALID,0,VALID,24.1513,VALID,126,VALID,0,
2011-08-23, 03:07:04,VALID,1003.67,VALID,0,INVALID,163.716,VALID,0,VALID,24.1494,VALID,126,VALID,0,
2011-08-23, 03:08:04,VALID,1003.69,VALID,0,INVALID,163.739,VALID,0,VALID,24.1494,VALID,126,VALID,0,
2011-08-23, 03:09:04,VALID,1003.68,VALID,0,INVALID,163.762,VALID,0,VALID,24.13,VALID,126,VALID,0,
2011-08-23, 03:10:04,VALID,1003.69,VALID,0,INVALID,163.762,VALID,0,VALID,24.091,VALID,126,VALID,0,
2011-08-23, 03:11:04,VALID,1003.69,VALID,0,INVALID,163.731,VALID,0,VALID,24.1123,VALID,126,VALID,0,
2011-08-23, 03:12:04,VALID,1003.68,VALID,0,INVALID,163.746,VALID,0,VALID,24.1123,VALID,126,VALID,0,
2011-08-23, 03:13:04,VALID,1003.7,VALID,0,INVALID,163.754,VALID,0,VALID,24.091,VALID,126,VALID,0,
2011-08-23, 03:14:04,VALID,1003.67,VALID,0,INVALID,163.731,VALID,0,VALID,24.1318,VALID,102,VALID,0,
2011-08-23, 03:15:04,VALID,1003.67,VALID,0,INVALID,163.723,VALID,0,VALID,24.13,VALID,102,VALID,0,
2011-08-23, 03:16:04,VALID,1003.67,VALID,0,INVALID,163.731,VALID,0,VALID,24.1105,VALID,67,VALID,0,
2011-08-23, 03:17:04,VALID,1003.65,VALID,0,INVALID,163.754,VALID,0,VALID,24.091,VALID,23,VALID,0,
2011-08-23, 03:18:04,VALID,1003.61,VALID,0,INVALID,163.739,VALID,0,VALID,24.0521,VALID,358,VALID,0,
2011-08-23, 03:19:04,VALID,1003.6,VALID,0,INVALID,163.731,VALID,0,VALID,24.0345,VALID,351,VALID,0,
2011-08-23, 03:20:04,VALID,1003.58,VALID,0,INVALID,163.746,VALID,0,VALID,24.015,VALID,349,VALID,0,
2011-08-23, 03:21:04,VALID,1003.58,VALID,0,INVALID,163.731,VALID,0,VALID,23.9548,VALID,350,VALID,0,
2011-08-23, 03:22:04,VALID,1003.56,VALID,0,INVALID,163.731,VALID,0,VALID,23.9548,VALID,348,VALID,0,
2011-08-23, 03:23:04,VALID,1003.58,VALID,0,INVALID,163.746,VALID,0,VALID,23.9955,VALID,283,VALID,0,
2011-08-23, 03:24:04,VALID,1003.57,VALID,0,INVALID,163.739,VALID,0,VALID,24.0132,VALID,267,VALID,0,
2011-08-23, 03:25:04,VALID,1003.55,VALID,0,INVALID,163.792,VALID,0,VALID,24.0326,VALID,267,VALID,0,
2011-08-23, 03:26:04,VALID,1003.56,VALID,0,INVALID,163.769,VALID,0,VALID,24.0521,VALID,267,VALID,0,
2011-08-23, 03:27:04,VALID,1003.59,VALID,0,INVALID,163.754,VALID,0,VALID,24.0929,VALID,338,VALID,0,
2011-08-23, 03:28:04,VALID,1003.58,VALID,0,INVALID,163.777,VALID,0,VALID,24.0308,VALID,2,VALID,0,
2011-08-23, 03:29:04,VALID,1003.56,VALID,0,INVALID,163.746,VALID,0,VALID,24.0716,VALID,17,VALID,0,
2011-08-23, 03:30:04,VALID,1003.55,VALID,0,INVALID,163.754,VALID,0,VALID,24.1105,VALID,17,VALID,0,
2011-08-23, 03:31:04,VALID,1003.59,VALID,0,INVALID,163.754,VALID,0,VALID,24.13,VALID,17,VALID,0,
2011-08-23, 03:32:04,VALID,1003.57,VALID,0,INVALID,163.723,VALID,0,VALID,24.1513,VALID,17,VALID,0,
2011-08-23, 03:33:04,VALID,1003.6,VALID,0,INVALID,163.731,VALID,0,VALID,24.1318,VALID,40,VALID,0,
2011-08-23, 03:34:05,VALID,1003.64,VALID,0,INVALID,163.762,VALID,0,VALID,24.1123,VALID,52,VALID,0,
2011-08-23, 03:35:05,VALID,1003.67,VALID,0,INVALID,163.762,VALID,0,VALID,24.091,VALID,52,VALID,0,
2011-08-23, 03:36:05,VALID,1003.71,VALID,0,INVALID,163.739,VALID,0,VALID,24.0929,VALID,52,VALID,0,
2011-08-23, 03:37:05,VALID,1003.7,VALID,0,INVALID,163.739,VALID,0,VALID,24.0716,VALID,52,VALID,0,
2011-08-23, 03:38:05,VALID,1003.7,VALID,0,INVALID,163.777,VALID,0,VALID,24.0521,VALID,52,VALID,0,
2011-08-23, 03:39:05,VALID,1003.69,VALID,0,INVALID,163.731,VALID,0,VALID,24.0326,VALID,52,VALID,0,
2011-08-23, 03:40:05,VALID,1003.67,VALID,0,INVALID,163.746,VALID,0,VALID,24.0521,VALID,53,VALID,0,
2011-08-23, 03:41:05,VALID,1003.67,VALID,0,INVALID,163.746,VALID,0,VALID,24.0345,VALID,52,VALID,0,
2011-08-23, 03:42:05,VALID,1003.59,VALID,0,INVALID,163.731,VALID,0,VALID,24.0734,VALID,53,VALID,0,
2011-08-23, 03:43:05,VALID,1003.61,VALID,0,INVALID,163.754,VALID,0,VALID,24.0716,VALID,119,VALID,0,
2011-08-23, 03:44:05,VALID,1003.61,VALID,0,INVALID,163.739,VALID,0,VALID,24.0716,VALID,119,VALID,0,
2011-08-23, 03:45:05,VALID,1003.63,VALID,0,INVALID,163.762,VALID,0,VALID,24.0326,VALID,119,VALID,0,
2011-08-23, 03:46:05,VALID,1003.63,VALID,0,INVALID,163.731,VALID,0,VALID,24.0521,VALID,119,VALID,0,
2011-08-23, 03:47:05,VALID,1003.65,VALID,0,INVALID,163.746,VALID,0,VALID,24.0716,VALID,131,VALID,0,
2011-08-23, 03:48:05,VALID,1003.63,VALID,0,INVALID,163.716,VALID,0,VALID,24.0326,VALID,111,VALID,0,
2011-08-23, 03:49:05,VALID,1003.63,VALID,0,INVALID,163.739,VALID,0,VALID,23.9742,VALID,78,VALID,0,
2011-08-23, 03:50:05,VALID,1003.58,VALID,0,INVALID,163.739,VALID,0,VALID,23.9566,VALID,78,VALID,0,
2011-08-23, 03:51:05,VALID,1003.54,VALID,0,INVALID,163.731,VALID,0,VALID,23.9159,VALID,70,VALID,0,
2011-08-23, 03:52:05,VALID,1003.47,VALID,0,INVALID,163.746,VALID,0,VALID,23.9159,VALID,19,VALID,0,
2011-08-23, 03:53:05,VALID,1003.41,VALID,0,INVALID,163.754,VALID,0,VALID,23.8964,VALID,20,VALID,0,